This is the latest recevied weather packets stored in our database for station/object W8UFO-13. If no packets are shown the sender has not sent any weather packets the latest 10 day(s).
| Time | Temp. | Humidity | Pressure | Rain* | Wind** | Luminosity | Snow |
|---|---|---|---|---|---|---|---|
| 1778019558 | 24.44° C | 52% | 1012.3 hPa | 0 mm | - | - | - |
| 1778019257 | 24.44° C | 51% | 1012.2 hPa | 0 mm | - | - | - |
| 1778018957 | 24.44° C | 52% | 1012.3 hPa | 0 mm | - | - | - |
| 1778018657 | 24.44° C | 51% | 1012.3 hPa | 0 mm | - | - | - |
| 1778018357 | 24.44° C | 50% | 1012.3 hPa | 0 mm | - | - | - |
| 1778018057 | 25° C | 49% | 1012.4 hPa | 0 mm | - | - | - |
| 1778017757 | 25° C | 49% | 1012.3 hPa | 0 mm | - | - | - |
| 1778017457 | 25° C | 49% | 1012.3 hPa | 0 mm | - | - | - |
| 1778017157 | 25° C | 48% | 1012.5 hPa | 0 mm | - | - | - |
| 1778016857 | 25° C | 47% | 1012.7 hPa | 0 mm | - | - | - |
| 1778016557 | 25° C | 47% | 1012.7 hPa | 0 mm | - | - | - |
| 1778016257 | 25.56° C | 47% | 1012.7 hPa | 0 mm | - | - | - |
| 1778015957 | 25.56° C | 45% | 1012.8 hPa | 0 mm | - | - | - |
| 1778015657 | 25.56° C | 45% | 1012.8 hPa | 0 mm | - | - | - |
| 1778015357 | 26.11° C | 45% | 1012.8 hPa | 0 mm | - | - | - |
| 1778015061 | 26.11° C | 45% | 1012.9 hPa | 0 mm | - | - | - |
| 1778014757 | 25.56° C | 46% | 1012.8 hPa | 0 mm | - | - | - |
| 1778014457 | 25° C | 45% | 1012.9 hPa | 0 mm | - | - | - |
| 1778014157 | 25° C | 44% | 1013 hPa | 0 mm | - | - | - |
| 1778013857 | 25.56° C | 46% | 1013.1 hPa | 0 mm | - | - | - |
| 1778013557 | 25° C | 46% | 1013 hPa | 0 mm | - | - | - |
| 1778013257 | 25° C | 45% | 1013.2 hPa | 0 mm | - | - | - |
| 1778012957 | 24.44° C | 47% | 1013.3 hPa | 0 mm | - | - | - |
| 1778012657 | 24.44° C | 47% | 1013.7 hPa | 0 mm | - | - | - |
| 1778012357 | 24.44° C | 50% | 1013.7 hPa | 0 mm | - | - | - |
* Rain latest hour (hover to see other rain measurements)
** Current wind speed in m/s (hover to see current wind gust speed)